Theta_e
311 311 311 311 311 311 311 311 310 309 309 309 310 310 310 309 309 310 309 310 311 312 311 311 310 310 311 311 311 311 312 314 313 315 317 317 316 315 314 314 313 313 313 313 314 316 315 315 316 316 316 317 317 317 316 316 317 320 333 339 324 319 319 317 321 320 320 320 315 315 316 317 317 317 316 316 316 316 315 315 315 315 315 316 316 315 314 313
311 311 311 311 311 310 309 309 308 307 307 308 308 309 309 308 308 308 309 310 311 311 311 310 310 310 311 311 311 312 313 313 313 317 317 315 315 314 315 314 313 313 314 315 315 316 316 315 316 316 316 316 317 318 317 317 317 322 335 334 323 324 319 315 318 316 316 317 315 316 316 317 317 316 316 316 315 315 315 314 313 314 314 315 315 315 314 313
311 310 310 310 309 308 307 307 307 307 307 307 307 308 307 307 308 308 309 311 311 311 310 310 310 310 311 311 313 313 314 314 314 318 316 314 315 315 314 313 314 315 316 316 316 316 316 315 315 315 315 315 316 318 317 318 317 318 329 329 320 322 317 314 317 315 316 316 315 316 316 317 317 316 317 316 315 314 316 315 313 314 314 314 314 314 314 314
310 309 309 308 308 307 307 307 307 307 307 307 307 307 308 308 308 309 310 311 310 310 310 310 310 311 311 312 313 313 316 318 318 317 315 313 315 314 314 315 315 316 317 317 317 316 315 315 315 315 315 315 315 317 317 318 317 316 324 326 317 316 316 317 317 316 317 316 316 316 316 317 316 317 317 316 316 315 315 316 316 316 316 315 314 314 314 314
308 307 307 307 307 307 307 307 307 308 308 308 307 308 308 309 309 309 310 310 310 310 310 310 310 311 311 313 314 313 317 321 318 314 314 313 313 313 315 315 315 316 316 318 317 316 316 315 315 315 315 315 315 318 318 317 318 317 318 318 315 314 317 317 316 317 317 316 317 316 316 317 317 317 317 316 318 318 316 316 317 317 317 316 315 314 314 313
307 307 307 307 307 307 307 307 308 308 308 308 308 308 308 309 309 309 310 309 310 310 310 310 310 311 312 313 314 314 317 320 316 313 314 313 313 315 315 314 314 314 316 318 318 317 317 316 316 316 315 315 315 317 318 316 318 320 317 314 315 315 317 317 316 317 317 317 317 316 317 317 316 317 317 316 317 318 316 317 317 316 316 316 315 314 314 314
307 307 307 308 308 308 308 308 308 308 308 308 308 308 309 309 309 309 309 309 310 310 310 310 310 311 312 313 314 315 317 317 315 314 314 314 314 314 314 314 314 313 315 318 319 318 318 317 317 316 315 315 315 315 317 316 317 321 320 315 316 316 317 317 317 317 316 317 317 316 317 316 316 316 316 316 316 317 316 317 317 316 316 315 315 315 314 314
308 308 308 308 308 308 308 308 308 308 308 308 308 308 309 309 309 309 309 309 309 310 310 310 311 312 313 314 314 315 315 316 316 315 315 315 315 314 314 314 314 314 315 319 320 319 318 318 317 315 315 315 316 315 315 316 317 320 319 316 317 317 317 317 317 317 316 316 316 316 316 316 316 316 315 316 316 316 316 316 317 316 316 315 315 314 314 314
310 310 310 310 309 309 309 309 309 309 308 308 309 308 309 309 309 309 309 309 309 309 310 310 311 312 313 314 314 316 317 318 318 316 315 315 316 315 316 316 315 316 317 319 320 319 318 317 316 316 316 315 316 316 315 317 318 317 317 316 317 317 316 316 317 317 316 316 315 315 315 315 315 315 315 316 315 316 316 316 316 316 315 315 314 314 314 314
311 311 311 310 311 311 310 310 309 309 309 309 309 309 309 309 309 309 309 309 309 310 310 310 312 312 314 314 316 319 320 320 318 316 316 316 317 317 319 318 318 319 319 319 320 319 318 317 317 316 316 315 315 315 315 317 318 316 316 316 317 317 317 316 316 317 316 316 316 316 316 315 314 315 316 316 315 315 315 316 315 316 315 315 315 314 314 314
311 311 311 311 311 311 311 311 310 310 310 309 309 309 309 309 309 309 309 309 309 310 310 311 312 312 314 315 316 318 319 319 318 317 317 318 318 319 319 319 319 319 319 320 320 319 318 318 318 316 316 316 316 315 315 316 316 316 316 317 317 315 316 317 316 316 316 315 316 316 315 314 314 315 317 315 315 315 315 315 315 315 315 314 314 313 314 313
311 311 311 311 311 311 311 311 310 310 310 310 309 309 309 309 309 309 309 309 309 310 310 311 312 312 314 314 314 317 319 320 318 318 318 318 318 319 319 319 320 319 320 319 319 320 319 318 317 316 316 315 316 316 316 316 316 316 316 319 321 320 320 318 315 315 315 316 316 315 316 317 316 315 316 315 315 315 314 314 314 313 313 313 313 313 313 313
311 311 311 311 311 311 311 311 310 310 310 310 310 309 309 309 308 308 309 309 309 310 310 311 312 312 313 314 314 315 318 320 320 319 318 318 318 319 319 319 319 319 320 319 319 319 319 318 316 316 316 315 316 316 316 315 314 318 315 316 323 325 325 318 314 315 315 315 315 315 319 327 324 315 314 314 314 314 313 313 313 313 313 312 313 312 313 313
310 311 311 310 311 311 310 310 310 310 310 310 310 310 310 309 309 309 308 309 309 309 310 311 312 312 312 314 315 315 317 319 320 319 318 318 318 319 319 319 319 319 319 319 319 319 319 318 316 316 316 316 316 315 319 318 317 319 315 320 325 321 329 324 313 315 316 314 314 316 320 325 325 316 313 314 314 314 313 313 313 313 313 312 312 312 312 312
310 310 309 309 310 310 310 310 310 309 309 310 310 310 310 310 310 309 309 309 309 309 310 311 312 312 313 314 315 315 316 317 319 319 319 319 318 319 319 319 319 319 319 319 319 319 318 317 315 316 315 316 316 319 327 326 326 325 316 327 329 319 332 330 312 313 317 314 313 316 320 321 320 315 313 314 313 314 313 313 313 312 313 312 312 312 312 312
309 309 309 309 309 309 309 309 309 309 309 308 309 309 309 309 309 309 309 309 309 309 310 311 312 313 315 315 314 315 316 317 318 319 318 319 318 319 319 319 319 318 319 318 318 318 317 316 315 316 315 316 321 329 336 329 332 335 322 326 332 322 327 327 314 313 314 314 313 315 320 322 319 313 312 313 312 313 313 313 313 312 313 312 312 312 311 312
310 309 309 308 308 308 308 309 309 309 308 308 308 308 308 308 308 308 309 309 309 310 310 313 314 314 315 315 315 316 316 316 317 318 318 318 318 318 318 319 319 318 318 318 318 317 316 316 315 317 317 315 320 331 333 325 329 335 323 322 330 325 322 325 321 315 311 315 316 314 316 319 318 312 311 313 312 312 311 312 313 313 313 312 312 312 312 312
311 310 310 309 308 308 308 308 308 308 308 308 307 308 308 308 308 307 308 308 309 311 312 314 315 314 314 314 315 316 316 316 317 317 318 318 318 318 318 318 318 318 318 317 317 316 316 316 317 321 321 316 320 326 328 327 329 332 326 325 328 324 321 324 324 317 313 315 317 316 316 316 316 312 311 312 312 311 312 313 313 313 313 312 312 312 312 312
309 310 311 311 310 309 308 308 308 308 308 308 308 307 307 307 307 307 308 308 311 313 313 314 314 313 315 314 314 315 316 316 317 318 318 318 318 318 318 317 318 317 316 317 317 316 316 317 319 322 323 320 320 323 326 329 330 332 334 334 331 326 323 324 324 318 314 315 317 316 316 316 316 314 312 312 312 311 312 312 311 311 312 311 312 312 312 312
308 309 310 311 311 310 310 309 308 308 308 308 308 307 307 308 309 309 309 308 310 311 312 313 312 312 315 316 314 315 316 316 317 318 318 318 318 317 317 316 316 316 316 320 319 315 316 321 323 324 325 323 320 320 322 323 323 325 328 329 327 325 324 325 325 318 312 316 320 317 316 316 316 315 312 310 311 310 310 310 310 311 311 311 312 312 312 312
311 308 308 309 310 311 311 310 309 308 308 308 308 307 308 308 310 311 310 309 308 308 310 312 313 313 314 316 316 316 316 317 318 318 318 318 317 317 316 316 317 318 316 317 317 315 317 322 325 325 323 320 320 320 319 319 319 320 321 322 323 324 324 323 323 318 312 315 322 319 316 315 315 315 312 310 310 309 310 310 310 311 311 311 312 312 313 312
316 311 308 308 309 310 311 311 310 309 308 308 308 307 308 308 310 312 312 312 311 310 309 310 312 313 314 314 316 317 317 318 318 318 318 317 317 317 316 316 319 321 317 315 318 318 320 322 323 320 316 315 318 319 317 318 319 319 320 319 322 324 323 322 322 318 314 315 323 322 318 317 316 315 313 311 310 312 313 313 313 314 313 312 312 312 312 311
319 315 310 308 308 308 309 310 310 309 308 308 308 307 308 309 311 312 313 314 314 312 311 311 311 311 313 314 316 317 317 318 318 318 318 316 316 316 316 316 319 321 318 319 323 323 323 327 322 314 313 317 320 319 317 318 318 321 321 319 322 324 322 324 323 319 316 316 319 321 318 316 315 316 315 313 312 313 315 315 315 315 314 314 314 314 313 312
322 318 313 309 308 308 308 309 310 310 309 308 308 307 308 311 312 313 313 314 315 314 310 311 313 312 313 313 314 317 317 317 318 318 318 317 316 316 315 316 318 320 318 319 322 322 325 325 318 313 316 319 320 320 319 320 321 322 322 320 321 323 322 324 323 321 323 323 319 318 319 321 320 319 317 315 313 313 314 314 314 314 314 315 314 313 313 313
322 320 317 313 310 309 308 308 309 310 309 308 308 308 308 311 314 314 313 314 315 315 312 311 313 313 312 313 314 316 318 317 317 317 317 317 317 316 316 315 318 321 319 318 319 320 321 318 315 319 320 319 319 321 322 323 322 323 324 322 320 322 323 323 321 321 326 329 323 317 324 332 329 322 320 320 319 319 316 312 312 315 314 313 312 312 312 312
323 321 320 317 312 310 309 308 308 308 309 309 308 308 309 312 314 313 313 317 315 313 314 313 313 314 313 314 315 316 317 317 317 318 317 317 317 316 317 316 316 319 318 317 317 319 319 316 317 323 324 322 321 321 323 322 320 323 325 324 321 321 322 323 321 321 326 329 322 317 324 331 326 322 325 326 326 325 320 314 313 315 315 313 313 312 311 311
323 322 321 319 316 312 310 310 309 308 308 308 308 308 310 312 313 312 312 315 314 312 316 315 313 315 315 314 315 315 316 317 317 318 317 317 317 316 318 318 316 317 315 316 319 318 319 319 319 321 324 325 323 321 323 320 321 326 325 325 324 321 321 323 320 322 326 325 323 322 323 324 322 323 325 324 323 323 321 318 316 314 315 315 314 313 311 311
323 322 321 321 319 315 313 312 311 311 309 308 308 307 310 312 312 312 312 313 314 314 317 316 313 315 315 315 315 314 315 316 317 318 317 316 317 316 317 317 318 318 315 317 321 318 318 323 323 321 322 322 323 325 324 319 321 326 323 323 326 324 326 328 324 324 323 321 326 327 322 321 325 327 324 320 321 323 322 323 319 315 315 315 315 314 312 311
322 322 322 322 321 317 314 311 313 313 310 309 309 308 310 312 312 313 312 312 315 317 316 316 316 315 315 315 315 314 314 315 317 318 316 316 316 316 317 316 315 317 316 315 320 319 317 319 319 320 322 321 324 326 322 320 321 319 318 323 326 325 327 329 326 325 325 323 324 327 323 322 325 328 325 320 324 326 323 322 318 314 316 316 315 315 313 312
321 322 322 322 321 318 314 312 313 312 310 310 309 308 310 313 312 311 310 310 315 319 315 314 317 316 315 315 314 314 315 315 315 316 315 315 315 315 316 316 314 319 320 316 320 321 316 313 314 318 319 318 320 319 315 318 317 315 321 328 330 329 328 330 328 324 325 324 323 325 324 322 325 328 327 324 327 327 323 324 324 318 316 316 316 315 313 312
321 320 321 321 321 319 315 314 314 312 311 312 310 310 312 315 315 311 310 309 311 316 314 315 317 316 315 316 316 315 315 315 314 315 316 315 316 315 315 317 317 320 322 319 322 321 316 316 315 316 315 314 318 317 313 315 314 317 330 331 328 330 328 328 327 325 325 325 325 325 321 319 324 327 327 324 325 325 322 326 331 324 318 317 317 316 314 313
320 320 320 321 321 321 318 318 317 312 311 312 312 313 313 315 315 313 311 309 310 316 317 317 317 316 315 317 317 316 316 316 314 315 317 316 317 316 316 318 319 320 322 321 322 320 320 322 318 314 313 315 321 322 318 317 316 321 329 327 325 327 326 327 327 325 325 324 322 320 318 320 322 323 323 323 324 325 320 317 321 319 317 317 318 316 315 313
320 320 320 320 320 321 320 320 318 313 311 312 313 315 314 314 314 313 311 311 313 318 319 318 318 317 316 318 318 316 316 318 315 315 317 316 317 317 317 319 318 320 323 320 320 321 323 323 318 316 316 316 319 322 321 321 319 320 323 324 326 325 327 331 329 324 324 324 319 314 317 322 323 323 323 321 321 321 316 313 315 315 314 316 316 316 315 313
318 319 319 319 319 320 320 321 319 314 312 314 315 316 315 314 314 313 312 311 315 319 319 319 319 317 317 320 320 317 317 319 316 316 317 317 319 318 318 319 317 321 326 321 319 322 323 323 320 319 319 317 317 318 321 323 319 318 321 323 324 327 331 332 329 327 328 327 321 315 320 327 328 327 322 315 313 315 314 315 315 314 313 314 313 314 314 313
317 319 319 319 319 319 319 320 319 315 313 316 317 315 313 313 315 316 314 311 315 322 320 318 319 318 319 321 320 316 317 319 316 316 318 318 319 318 318 318 315 319 324 320 320 321 320 324 323 318 315 317 317 316 318 321 320 318 320 322 323 326 327 324 325 326 325 325 323 318 323 327 325 323 317 312 312 312 311 312 314 314 312 311 311 312 312 312
317 318 319 318 319 319 319 319 318 315 314 316 316 314 313 315 317 317 315 311 314 321 319 318 320 321 319 320 320 317 317 320 317 317 318 317 318 318 317 318 315 316 318 317 322 323 321 324 321 314 314 315 315 316 315 318 322 319 318 321 321 320 322 323 324 320 319 323 324 321 324 325 323 321 319 318 320 317 312 311 310 311 311 309 309 310 311 312
316 317 317 318 318 319 318 318 317 314 315 316 316 315 314 316 317 316 315 312 313 318 320 320 321 321 320 320 320 319 318 319 318 317 319 317 318 318 317 318 316 315 316 316 322 324 322 324 319 315 318 314 310 314 313 312 317 320 321 321 318 319 323 326 326 324 324 325 324 322 324 325 325 324 322 319 319 320 319 316 310 307 308 308 308 309 310 311
315 316 316 317 318 318 318 318 316 314 316 317 315 315 314 315 315 315 315 313 314 318 319 319 318 319 321 320 320 319 318 319 318 317 319 318 318 319 316 318 317 314 315 315 319 323 321 322 319 315 317 314 311 316 317 312 313 318 320 319 319 324 326 323 324 328 328 327 326 324 322 322 322 324 324 321 321 323 321 318 315 310 307 307 309 309 309 310
314 315 315 316 317 318 318 318 316 314 317 318 315 315 315 314 314 314 315 314 314 316 316 316 316 317 320 319 320 319 317 318 317 317 319 318 318 318 315 317 318 314 314 314 318 323 321 320 321 315 313 314 314 317 320 318 313 314 316 316 319 324 324 323 324 325 326 327 328 326 324 324 323 323 326 323 324 328 324 320 319 313 308 309 311 310 309 310
313 314 315 315 315 317 318 317 315 315 317 317 315 314 314 314 313 313 314 315 315 315 314 315 316 316 319 319 319 319 318 318 317 316 319 318 318 318 315 316 319 316 314 313 316 322 321 320 321 316 312 315 318 318 319 319 316 315 318 318 318 319 320 323 323 322 326 328 329 328 325 325 325 323 324 322 322 325 326 325 320 312 311 313 312 311 311 310
313 314 315 315 315 316 317 316 315 315 317 316 314 314 313 314 314 314 314 314 315 315 314 315 316 316 317 318 318 319 319 318 317 317 318 317 317 319 316 315 318 317 315 315 317 319 320 321 324 320 315 317 321 319 315 316 318 317 318 318 318 318 320 322 322 321 323 324 328 330 324 325 328 324 322 323 322 318 317 320 316 311 314 317 316 314 312 310
312 313 314 315 316 316 315 315 314 315 316 314 313 313 313 313 314 314 314 313 314 315 315 315 317 316 316 317 318 319 319 319 317 317 318 317 316 318 317 315 315 315 315 317 317 317 319 324 326 324 319 318 320 316 311 313 317 316 318 320 319 318 320 323 324 323 322 321 323 325 324 324 324 322 321 320 317 312 310 311 311 312 315 316 316 316 312 310
311 313 314 314 315 315 315 315 315 314 314 313 312 313 312 312 313 314 314 314 314 315 316 316 316 316 316 317 318 319 319 319 318 317 318 318 316 316 316 315 314 315 316 317 318 316 318 323 324 324 321 319 320 317 312 314 316 316 319 321 319 318 319 322 324 323 324 324 322 322 325 322 318 318 315 309 308 309 310 311 311 313 316 316 315 314 312 310
310 312 313 313 315 315 315 316 315 314 314 313 312 313 312 312 313 314 314 314 314 315 316 316 315 315 316 317 318 319 319 319 319 318 318 319 318 315 314 315 315 316 316 318 319 317 319 323 324 325 325 323 322 321 317 315 316 318 321 319 318 318 318 320 321 320 322 324 323 323 325 321 320 319 312 308 311 311 308 310 312 312 316 317 314 314 312 310
309 310 312 312 314 315 315 316 316 314 314 313 313 313 313 312 312 313 314 313 312 314 315 316 315 314 315 317 317 317 319 318 319 319 318 319 318 315 314 315 315 315 316 317 316 316 320 323 323 323 324 324 324 323 321 317 316 318 321 318 316 318 318 319 321 320 321 322 322 323 323 321 321 320 316 315 318 315 311 311 312 312 315 315 315 315 313 311
308 311 312 313 314 314 315 315 315 314 313 313 313 313 313 312 312 312 313 313 313 312 314 315 314 314 316 318 317 318 319 318 318 320 319 319 319 316 314 315 315 315 316 316 315 318 324 323 320 321 323 322 322 323 322 320 317 318 319 318 317 318 317 318 320 321 322 322 322 321 321 322 321 320 319 319 319 321 318 311 309 313 315 315 317 316 313 310
308 310 312 313 314 314 314 314 315 314 313 314 314 313 313 313 313 313 313 314 314 312 313 314 314 315 316 316 316 318 319 318 319 321 319 319 319 318 315 314 315 315 316 315 315 321 327 323 320 321 322 320 321 323 321 319 319 319 319 318 317 317 317 318 319 320 322 323 323 321 321 322 321 320 322 322 322 324 319 309 309 314 315 315 316 315 312 310
307 308 310 312 312 314 315 315 315 314 314 314 314 314 314 313 313 313 313 314 314 313 314 314 314 315 316 316 316 317 318 318 319 319 319 319 319 319 316 315 315 315 316 316 315 320 325 323 320 321 321 320 320 321 320 320 319 319 318 318 317 317 317 317 318 319 321 322 322 322 323 323 320 319 321 321 319 320 317 313 313 315 315 315 314 313 312 311
306 307 308 309 310 311 313 313 314 315 315 314 314 314 314 314 314 313 313 314 314 314 314 315 314 314 315 316 316 316 316 318 318 318 319 320 321 321 320 319 316 312 314 318 317 316 320 322 322 321 321 321 320 320 320 319 319 319 318 318 317 317 316 317 317 317 319 320 320 320 322 322 319 321 323 320 316 315 314 314 314 314 314 314 313 312 313 311
306 306 307 308 308 308 309 309 311 313 314 313 314 314 314 314 314 313 313 314 314 314 314 315 315 314 315 315 315 316 316 316 318 318 319 320 320 320 320 322 320 314 314 318 317 314 316 321 322 320 321 322 320 320 320 320 319 319 319 318 317 317 316 316 317 317 317 318 319 318 320 320 317 319 321 317 314 314 313 312 312 313 314 313 312 312 313 313
305 306 307 308 308 308 308 308 309 312 313 313 313 313 313 314 314 314 314 313 314 314 314 315 315 314 315 315 314 315 314 315 316 316 317 319 318 318 319 319 319 317 316 317 317 314 314 318 320 319 321 322 320 320 320 319 318 319 319 319 317 316 316 316 316 317 317 318 318 318 319 319 317 317 317 314 313 312 311 310 311 312 314 313 312 313 314 314
304 305 306 307 307 308 308 309 309 311 312 312 312 312 312 314 314 314 314 314 313 314 314 314 315 315 316 315 313 313 313 314 315 314 315 317 316 316 318 316 316 317 317 316 317 316 315 317 320 320 320 320 320 322 320 318 318 319 319 319 318 316 316 315 315 316 316 317 318 318 318 318 318 319 318 317 317 314 311 311 312 313 313 313 313 315 316 316
Wind_Speed
11 10 10 9 9 8 8 8 8 8 9 10 10 10 10 10 11 11 11 11 11 11 9 7 6 5 4 3 3 2 2 2 2 1 1 3 4 4 4 4 5 4 2 3 4 3 4 5 5 4 4 4 4 4 5 5 5 3 3 4 3 2 2 4 6 6 4 5 7 10 9 7 5 6 9 7 6 8 7 6 8 8 8 10 10 15 18 16
11 10 10 9 9 9 9 9 9 9 10 10 10 11 11 11 11 11 12 12 12 10 8 7 6 5 4 3 2 2 2 3 2 1 1 3 4 4 5 6 6 4 3 3 3 3 3 4 4 3 3 3 4 4 4 5 6 4 3 4 2 5 2 2 6 7 4 7 11 11 9 8 8 9 10 5 4 9 7 5 7 8 10 11 13 16 16 15
11 10 10 10 9 9 9 9 10 10 10 10 10 11 11 12 12 12 13 12 11 10 8 7 5 5 4 3 2 1 2 3 2 1 1 1 3 5 7 8 7 5 4 3 2 3 3 3 3 3 3 3 4 4 5 5 4 2 4 4 3 6 2 1 5 6 6 11 13 10 7 8 9 10 9 5 5 8 7 7 8 10 13 14 14 16 16 15
11 10 10 9 9 9 9 9 10 10 10 10 11 11 11 12 12 12 12 11 10 9 8 6 5 4 4 3 1 1 1 0 3 2 2 4 6 9 10 9 8 7 5 3 3 4 4 4 3 3 3 2 3 3 4 5 2 1 3 3 5 6 3 2 6 5 7 13 13 10 7 7 9 10 9 8 6 4 11 14 12 12 14 16 16 16 16 15
11 10 10 9 9 9 9 9 9 10 10 10 11 11 12 11 12 12 11 10 9 8 8 6 5 5 3 3 1 0 2 2 3 5 5 7 10 11 11 10 9 7 5 4 4 5 5 4 3 3 3 1 2 2 2 5 4 2 2 2 6 7 3 4 8 7 9 11 9 9 7 7 9 8 10 10 6 6 11 14 14 14 14 15 17 17 16 15
11 10 10 9 8 8 8 8 9 9 9 10 10 11 11 11 11 11 11 10 9 8 8 6 6 5 3 2 1 1 2 2 5 8 7 8 10 11 11 9 7 5 4 3 3 5 4 3 4 3 2 1 1 2 2 4 4 2 1 1 3 5 5 8 8 7 9 9 9 8 6 8 8 6 10 12 10 9 9 10 13 15 15 16 17 17 17 16
11 11 10 9 9 8 8 8 8 8 9 9 10 10 11 11 11 11 10 10 9 9 8 7 6 5 4 3 2 2 1 4 8 7 7 8 8 9 9 7 4 1 1 2 1 3 3 3 5 3 3 3 1 1 3 3 4 4 1 0 2 3 7 9 7 7 8 9 9 8 7 8 8 5 7 12 15 13 11 9 11 15 16 17 18 17 17 17
11 11 10 10 9 9 9 8 8 8 9 9 9 10 10 10 10 10 10 10 10 9 8 7 6 5 4 3 3 2 2 6 8 7 8 7 6 7 6 6 4 3 2 2 1 3 3 3 5 4 3 2 2 1 2 3 4 4 1 1 2 3 4 6 5 6 6 7 8 7 7 8 8 5 5 12 15 13 14 12 11 15 18 19 19 17 17 17
11 11 11 10 10 10 10 10 9 9 9 9 9 9 9 10 10 10 10 10 10 9 8 7 6 6 5 4 3 2 4 8 8 8 8 6 6 6 5 5 5 4 3 2 2 3 3 4 5 3 3 2 3 2 2 2 2 1 3 1 1 0 2 4 7 8 7 7 7 6 5 7 7 5 8 14 15 13 13 13 14 17 20 21 19 18 17 17
11 11 11 11 11 11 11 11 11 10 10 10 10 10 10 10 10 10 10 10 9 9 8 7 7 6 6 5 4 3 5 9 9 9 8 6 5 5 5 5 5 4 3 3 4 4 3 3 3 3 3 3 3 2 2 2 2 2 2 1 2 3 5 6 9 10 9 7 8 7 5 6 5 3 7 12 13 15 15 15 17 19 20 21 19 18 17 18
13 12 12 12 12 11 11 11 11 11 11 11 10 10 10 10 10 10 11 10 10 9 8 8 7 7 7 7 6 4 7 10 10 9 7 5 4 4 4 5 4 4 3 3 4 4 3 2 1 1 2 2 3 2 2 3 4 2 1 3 5 5 7 9 10 11 8 5 8 9 4 5 2 3 9 12 13 17 18 19 20 20 20 20 19 19 19 19
14 14 13 13 12 12 11 11 11 11 11 11 11 11 10 10 10 11 11 10 10 9 9 8 8 9 8 8 8 6 7 10 10 9 7 5 5 5 5 5 5 4 4 3 3 4 3 1 1 1 2 4 2 2 2 3 2 1 2 3 6 8 6 8 8 10 9 3 6 6 3 5 4 8 11 10 13 18 19 21 21 21 21 20 21 20 21 21
16 15 15 14 14 13 12 12 11 11 12 11 11 11 11 11 10 10 11 10 10 9 9 9 8 9 8 7 8 8 9 10 10 9 8 6 6 6 7 6 5 3 3 3 3 3 3 2 1 2 4 4 2 2 3 2 2 1 2 1 3 7 5 5 3 6 8 3 5 7 2 6 7 12 11 8 15 19 20 22 22 22 21 21 22 21 22 22
18 18 17 17 16 15 14 12 12 12 11 11 11 12 12 11 11 10 10 9 9 9 9 9 8 8 8 7 7 9 11 12 12 11 9 8 7 7 8 7 5 5 5 5 5 4 4 4 2 3 4 3 3 4 2 3 2 1 1 2 2 2 4 6 2 8 7 3 7 7 2 7 8 11 10 11 17 20 22 23 22 22 22 22 23 23 23 23
20 20 19 19 18 17 15 14 13 12 12 12 12 12 12 11 11 10 10 10 9 9 9 9 8 8 7 7 8 10 12 14 14 13 11 10 8 8 9 8 7 6 6 6 6 5 5 5 4 3 4 3 4 3 3 4 3 2 1 3 3 2 5 8 1 10 7 2 7 6 2 7 9 9 7 13 19 21 22 23 23 24 24 24 24 24 24 24
21 22 21 20 20 19 17 16 15 13 13 13 12 12 12 11 11 11 11 10 9 9 9 8 9 7 4 5 8 9 13 16 15 14 13 11 10 9 9 9 8 7 7 6 6 6 6 5 3 3 3 3 3 4 4 3 4 3 1 3 2 2 3 6 2 6 6 4 4 3 2 4 5 4 6 15 20 21 22 22 24 26 26 27 27 26 26 25
21 22 22 21 21 20 19 18 16 15 14 14 13 12 11 11 11 11 11 10 9 10 9 7 7 7 5 6 8 10 15 16 14 14 14 12 11 9 9 9 9 8 7 6 7 7 6 5 5 3 1 2 3 4 4 2 3 4 1 2 4 3 2 3 4 4 5 5 3 3 3 7 7 3 8 16 20 21 22 24 26 27 28 28 28 28 27 27
20 22 22 22 22 21 20 19 17 16 15 14 13 13 12 11 11 10 10 10 9 7 6 8 6 2 6 11 11 10 13 14 14 14 13 13 11 10 9 9 8 8 7 7 6 7 5 3 3 1 2 3 2 5 3 4 4 3 3 2 3 2 2 4 4 3 6 3 4 4 4 11 12 10 11 16 19 22 24 26 26 27 29 29 29 30 30 30
19 21 22 22 22 22 21 20 19 18 17 15 14 13 11 10 9 9 10 11 12 7 3 10 13 5 2 10 14 11 9 11 13 14 14 13 12 12 10 8 9 10 9 6 3 5 6 3 4 2 1 3 4 6 7 8 6 6 6 4 3 3 3 5 5 6 8 4 5 8 7 11 12 12 13 15 19 23 26 26 25 25 27 29 31 32 32 33
18 19 21 22 22 23 22 22 20 19 18 16 15 13 10 8 5 5 12 16 18 16 9 10 16 12 3 2 9 11 9 10 14 15 15 14 14 13 11 10 10 7 5 5 3 3 5 3 2 5 7 8 8 9 8 4 5 5 4 3 3 4 5 4 5 6 7 5 5 9 9 11 11 10 13 15 15 20 24 24 26 27 28 31 34 35 35 35
18 19 20 21 22 23 23 23 22 21 20 18 17 14 11 11 6 3 10 16 21 24 19 12 13 15 9 3 6 9 10 11 13 16 16 16 16 13 11 11 7 3 2 5 5 3 4 4 7 9 10 8 7 8 7 2 2 1 2 2 4 4 5 6 4 5 3 4 6 6 7 11 12 10 15 14 9 16 25 26 29 32 32 34 36 37 37 35
18 19 20 20 21 22 23 24 23 22 22 20 20 18 14 14 12 8 7 8 14 21 23 20 17 16 15 11 9 10 10 9 11 17 18 19 19 13 12 10 4 3 3 5 6 2 2 3 11 13 7 4 3 4 5 5 4 3 2 2 4 3 4 6 4 4 1 4 5 4 4 9 11 10 13 16 14 19 28 30 33 35 34 36 37 38 37 36
20 19 19 20 20 21 23 24 23 24 23 22 21 21 17 15 15 13 8 5 9 16 21 24 24 24 23 19 15 15 15 11 12 19 21 22 21 16 13 10 4 4 4 5 6 4 3 6 13 13 8 5 3 3 5 3 4 4 3 3 4 4 2 4 4 4 1 2 3 4 5 7 9 8 10 19 21 23 29 31 32 35 35 38 39 39 39 40
21 20 20 20 19 20 22 22 23 24 23 23 22 21 19 16 14 12 8 4 6 11 19 22 24 28 28 22 19 21 21 16 15 20 24 26 22 15 13 11 6 5 5 8 9 6 6 6 4 7 9 8 6 4 5 4 3 5 6 6 6 5 6 6 4 4 4 4 2 2 6 6 7 9 10 12 12 17 26 27 28 35 38 38 37 37 40 41
23 22 21 20 20 20 20 21 23 23 23 24 23 21 18 15 12 9 4 2 5 6 11 17 20 24 27 24 21 21 20 17 19 21 25 29 25 14 10 11 7 4 7 8 7 5 8 7 3 7 6 7 7 5 6 7 4 5 6 9 9 7 7 5 2 4 4 5 3 1 4 6 4 6 9 6 3 9 18 18 23 34 35 35 36 37 38 39
27 24 22 22 21 19 19 20 20 21 23 25 23 20 17 13 9 6 2 3 4 3 4 10 13 13 20 24 23 18 10 13 20 23 24 28 27 15 7 7 5 4 7 6 3 3 5 9 6 6 6 7 6 5 5 7 5 4 6 8 9 7 5 5 1 2 1 4 4 2 2 7 5 4 7 6 5 10 12 11 20 30 29 31 37 37 37 37
29 28 25 24 24 22 21 18 17 20 23 22 21 20 18 14 9 5 4 3 5 5 8 9 10 10 14 21 29 19 3 8 16 22 27 29 26 16 7 6 4 4 6 5 3 3 4 8 7 6 6 6 6 5 6 8 7 4 5 6 7 6 6 5 4 4 4 3 5 3 2 5 7 6 6 7 9 11 12 13 19 27 28 29 33 34 35 37
29 30 28 27 27 27 24 18 18 21 19 17 20 22 18 15 11 7 5 2 3 6 7 7 10 13 13 22 34 20 6 13 12 16 30 32 26 15 7 9 7 6 9 7 4 4 4 8 9 9 7 5 6 5 7 10 5 6 4 6 6 6 5 3 4 3 1 2 5 4 1 3 8 6 3 3 6 10 13 14 15 22 27 27 28 31 33 36
28 30 29 28 28 28 26 24 23 19 15 15 19 22 19 18 12 6 4 3 3 4 4 8 10 11 15 21 26 14 9 9 4 14 28 27 25 12 2 9 8 7 9 7 5 3 1 6 9 9 6 7 6 3 7 11 6 4 6 7 6 5 5 5 4 3 2 1 6 6 3 4 7 4 2 0 4 8 11 12 12 18 23 22 24 27 30 33
27 30 32 31 30 29 28 30 28 18 15 17 20 24 24 19 10 4 3 3 2 1 4 8 8 11 18 17 10 5 6 2 4 17 18 14 18 10 2 7 6 4 3 4 2 2 2 1 4 4 4 5 5 3 2 7 6 8 7 6 6 6 5 4 3 4 1 4 6 9 10 7 6 4 4 4 5 7 8 7 9 14 17 17 19 22 26 30
25 29 33 34 34 32 30 35 31 22 19 20 24 29 26 13 4 4 7 1 1 2 5 4 4 10 17 14 7 5 3 1 7 15 10 5 9 6 4 5 3 4 1 5 3 4 4 1 1 2 4 6 7 4 3 2 5 7 5 5 4 4 4 4 4 4 1 6 6 8 7 7 7 6 4 6 7 6 7 7 8 10 12 14 15 17 22 27
23 27 32 35 37 34 35 39 31 24 23 21 27 30 20 5 2 6 5 2 0 4 5 4 4 8 13 12 9 9 5 3 7 10 7 5 6 7 7 6 5 4 3 6 3 3 2 4 3 1 4 7 6 4 3 4 3 5 5 6 3 3 3 3 3 0 3 7 5 2 1 4 9 8 7 10 10 9 10 12 11 11 12 14 14 16 19 24
21 23 29 35 39 39 40 40 31 27 29 26 28 22 8 3 7 9 8 4 2 3 4 4 4 8 12 9 6 6 4 2 7 7 5 5 5 8 7 5 6 3 2 6 3 1 3 5 2 1 3 8 10 6 3 1 3 5 6 6 5 2 0 3 4 2 4 6 4 2 1 4 5 5 11 15 16 17 17 16 17 16 16 16 16 18 20 24
21 21 26 34 39 40 39 40 34 30 31 31 25 12 5 5 6 8 12 9 2 2 2 3 6 7 9 6 4 6 4 2 6 6 4 6 5 7 6 6 6 2 3 4 3 6 5 6 5 7 4 10 12 8 6 5 5 5 4 6 5 5 4 4 4 4 4 4 4 2 2 4 3 3 9 12 15 20 20 21 24 23 21 18 17 19 22 25
22 20 23 32 39 41 41 42 38 32 35 32 18 6 7 7 5 8 12 9 2 3 2 3 8 7 5 2 2 6 4 2 5 5 4 6 6 7 7 8 11 6 5 4 2 4 4 6 6 5 3 12 12 6 7 8 2 3 3 5 3 6 5 3 3 4 3 3 3 2 4 5 4 5 8 8 11 13 14 19 23 24 20 15 15 18 22 26
21 21 22 30 40 43 43 45 39 35 39 29 11 7 11 10 8 8 7 8 7 5 5 4 5 5 6 2 2 6 2 1 6 4 3 4 3 7 8 7 11 12 9 7 2 3 3 5 4 1 1 6 8 6 6 5 4 1 3 4 4 4 5 2 3 1 2 3 4 3 5 5 3 7 8 8 9 8 8 13 18 19 16 14 16 18 22 26
21 22 22 29 38 39 42 47 39 37 39 24 9 9 8 9 12 7 5 7 9 9 8 4 3 5 7 4 4 7 4 2 5 5 4 3 3 7 9 5 8 15 15 8 2 3 4 3 4 1 2 3 1 6 4 3 5 5 4 6 2 2 2 2 2 3 3 4 5 3 7 5 2 6 4 2 7 9 9 11 13 14 14 17 20 20 22 25
20 21 23 28 33 34 41 44 39 41 35 16 9 11 5 8 13 6 4 6 9 9 7 6 6 6 8 7 5 7 6 4 6 6 4 4 5 9 11 6 8 19 22 12 2 2 4 2 4 1 2 2 3 5 3 4 3 4 4 6 4 1 2 2 2 2 1 4 5 3 5 5 5 6 1 3 9 11 12 12 9 11 16 21 24 22 22 24
18 18 22 28 30 32 37 40 42 44 26 7 8 11 6 9 12 6 4 5 8 10 9 9 8 4 5 7 5 6 8 8 8 7 5 5 5 7 14 11 8 15 22 16 5 2 3 3 3 2 0 1 2 2 4 2 1 4 3 3 2 2 3 3 3 3 3 3 4 3 3 4 6 7 6 9 12 11 12 10 8 13 21 26 27 25 25 26
18 14 18 27 27 26 35 42 42 33 14 6 10 8 4 7 9 11 16 12 5 6 9 10 9 6 6 7 6 7 8 7 9 8 5 7 6 5 10 12 6 8 18 18 9 2 2 3 3 2 2 0 2 4 8 10 6 3 4 5 3 1 2 1 1 2 4 3 2 4 6 5 4 5 8 11 11 11 11 9 8 15 24 27 27 27 27 28
18 11 14 24 22 23 37 39 27 17 8 6 9 8 8 7 4 10 21 19 8 5 5 6 8 9 7 8 8 7 7 6 8 8 5 7 8 5 8 15 11 9 10 9 8 6 3 3 3 2 2 4 5 5 5 8 6 5 6 8 8 6 4 2 3 2 2 3 4 3 7 8 4 4 7 8 8 9 11 10 10 18 25 25 25 26 27 27
16 10 13 18 17 25 36 25 10 11 9 9 15 12 8 7 4 5 13 16 12 8 5 3 5 8 7 7 7 6 7 6 7 7 5 8 10 6 10 21 21 19 14 8 10 10 5 3 3 3 4 5 6 4 2 4 3 3 2 4 4 4 5 5 5 4 2 3 3 3 6 9 4 4 5 6 7 9 11 12 13 20 24 22 21 22 24 25
15 17 19 17 19 30 29 11 6 10 5 10 20 13 7 9 8 5 7 11 10 5 4 4 3 6 7 5 7 7 8 7 9 10 8 7 9 8 12 22 23 18 13 6 4 6 5 3 3 1 2 3 4 4 3 2 2 2 1 2 5 7 7 5 4 4 3 4 4 3 6 8 3 1 2 3 5 8 11 13 15 21 23 21 21 20 20 22
15 21 22 18 26 34 22 6 6 8 6 10 12 10 12 13 11 11 9 9 10 6 6 7 5 7 9 4 6 10 10 8 8 13 11 5 6 12 17 25 24 15 10 8 8 10 7 3 3 2 2 2 3 3 2 1 2 4 4 5 8 10 8 2 0 2 3 8 9 5 9 7 2 4 3 2 2 5 11 12 13 19 22 21 20 19 19 20
11 16 18 19 31 36 23 14 12 7 8 12 9 10 14 11 14 22 15 10 12 8 6 10 9 7 5 4 6 8 11 13 10 9 10 6 3 8 18 27 25 17 15 17 19 18 9 4 6 6 7 8 7 6 5 4 3 2 4 7 9 10 11 7 2 4 8 7 10 9 12 6 1 4 4 3 2 5 10 11 13 18 21 20 18 18 20 20
6 6 8 14 29 34 27 26 21 8 7 12 9 11 14 8 12 23 18 12 15 14 10 10 8 5 5 6 8 7 10 15 12 5 7 9 4 3 16 27 26 23 21 19 21 15 4 3 10 12 12 14 12 7 6 9 7 6 9 12 13 13 14 9 6 9 8 2 5 13 13 10 9 6 5 6 4 6 8 10 14 18 19 19 18 20 21 20
7 3 4 7 16 22 20 21 18 8 9 13 7 8 16 14 9 13 16 15 16 17 12 7 6 8 10 12 11 11 11 11 10 8 7 9 4 2 10 19 22 26 22 17 20 13 3 3 13 16 18 19 17 9 10 13 13 14 14 15 16 16 14 13 14 13 6 4 12 14 7 11 19 11 8 8 6 5 7 11 17 19 19 20 20 20 21 21
11 6 9 8 5 8 12 17 17 13 14 15 8 7 15 18 12 10 13 15 15 16 11 6 9 13 15 17 13 11 12 8 9 12 9 7 4 0 3 6 11 21 17 13 16 11 3 7 14 16 18 21 20 11 11 14 13 14 16 18 18 19 17 19 22 17 8 7 20 15 9 14 22 13 8 9 9 11 14 17 20 19 20 22 21 22 23 23
14 10 14 14 7 5 10 15 18 16 15 15 11 11 15 18 18 14 11 9 10 13 13 10 14 19 19 18 13 10 12 10 11 13 8 7 6 4 4 2 5 12 11 9 9 6 3 7 11 13 16 20 19 11 11 13 11 9 14 17 18 21 24 25 25 20 14 15 23 18 10 17 18 7 7 11 18 22 20 19 21 22 24 24 22 24 25 25
18 13 13 13 11 12 15 13 11 10 10 11 10 12 15 18 20 17 12 12 10 11 15 18 20 20 18 16 15 15 16 14 14 14 9 8 7 6 6 5 3 5 6 6 4 1 3 5 4 6 9 15 17 9 9 12 12 10 12 14 18 22 24 22 19 15 14 17 23 18 15 19 12 5 8 14 18 19 16 18 23 25 26 25 24 27 28 28
26 21 14 7 5 7 9 7 5 6 7 8 7 8 11 16 19 15 13 20 20 15 17 23 23 17 15 17 16 17 21 20 21 21 14 11 11 10 8 6 7 6 5 6 4 2 2 2 2 4 4 12 11 6 8 9 8 7 11 16 21 21 16 14 14 14 16 18 19 16 15 18 9 5 8 11 12 13 15 19 24 26 27 27 27 30 31 31
29 29 23 12 4 5 6 3 3 6 6 7 9 9 9 11 14 13 11 16 23 23 22 25 24 15 12 16 21 29 35 32 28 25 18 15 16 14 10 9 10 11 8 5 3 3 5 4 1 4 5 10 7 7 9 5 2 6 15 21 22 16 11 11 13 15 17 16 14 13 15 19 11 6 8 8 8 11 17 23 28 29 29 30 30 32 32 33
Wind_Direction
200 200 205 209 211 214 212 213 213 210 206 201 199 196 196 195 192 190 187 186 184 186 191 195 195 191 195 189 176 180 203 253 295 335 222 222 231 219 188 169 164 159 170 176 170 160 115 100 106 88 74 67 52 56 65 52 43 62 96 81 99 153 155 175 183 194 170 164 189 188 178 162 155 161 147 130 146 152 148 151 145 156 162 172 181 173 176 185
201 205 211 211 210 208 207 208 208 208 206 201 199 199 198 195 193 190 186 186 188 192 197 197 196 193 198 192 183 198 236 273 279 146 154 235 225 199 176 158 151 152 159 175 185 174 127 108 108 79 60 70 51 51 64 47 50 67 98 90 166 198 192 200 180 187 173 159 173 177 178 178 176 172 162 160 173 154 142 143 148 163 168 171 178 176 182 187
202 206 211 211 209 206 204 204 203 203 203 199 197 197 196 191 190 187 186 188 192 198 202 200 198 197 202 190 182 252 277 270 214 168 35 116 164 158 153 147 142 141 134 137 156 150 131 111 98 75 59 71 55 59 60 44 47 48 84 92 226 208 167 77 142 176 193 164 157 162 174 181 179 175 174 176 173 172 179 176 173 184 183 179 181 182 184 187
200 203 206 207 206 205 204 204 203 201 198 194 192 192 191 188 187 187 189 193 197 202 202 201 200 201 202 179 187 303 350 104 161 139 75 106 131 140 142 140 134 126 110 104 123 126 125 112 102 80 63 64 49 65 52 35 34 35 92 141 202 178 139 116 124 135 174 160 153 156 155 165 174 182 190 166 146 214 218 206 211 215 204 192 187 186 186 189
195 197 199 200 202 203 204 206 205 202 198 194 192 191 189 188 189 191 194 198 200 203 202 203 204 204 195 172 230 261 89 85 141 123 111 123 132 140 142 138 128 115 99 101 128 124 123 118 108 75 59 91 53 69 46 36 62 68 48 153 166 159 153 159 135 124 155 160 155 152 149 169 178 192 200 184 178 232 228 221 228 233 225 209 198 192 188 190
191 191 192 194 195 198 202 206 207 205 202 199 197 195 193 194 194 197 201 203 203 203 204 204 203 202 187 180 252 189 126 112 145 127 124 134 140 148 150 147 133 108 85 85 152 135 121 109 87 66 59 62 36 81 77 40 61 94 359 73 139 165 160 161 157 149 160 164 165 168 177 181 177 201 212 213 225 238 245 234 226 231 228 216 207 199 193 193
189 189 189 190 190 193 198 204 207 207 206 205 205 202 200 201 199 202 204 205 206 206 205 203 202 201 189 196 224 206 175 150 151 139 139 144 151 160 163 167 166 178 48 31 187 145 120 95 71 68 73 68 76 89 75 53 65 101 155 340 94 132 151 163 174 175 175 178 184 185 186 186 183 195 218 230 238 242 247 237 220 223 218 210 207 203 200 197
192 192 193 193 195 195 197 203 206 208 210 209 209 209 208 207 206 206 207 209 209 208 207 203 200 198 196 208 220 239 209 166 161 156 159 160 167 175 184 197 207 246 291 352 181 147 120 90 74 78 92 87 132 149 83 60 44 76 135 252 91 106 151 173 195 200 200 195 190 187 193 205 203 207 242 239 238 239 235 228 218 214 208 205 206 206 206 203
201 200 200 200 203 203 202 204 207 210 213 212 211 212 213 213 212 211 211 212 211 210 208 203 201 199 208 214 210 239 197 169 168 170 173 185 196 202 217 220 223 246 268 274 213 168 138 100 80 81 117 122 127 125 81 66 2 111 136 94 50 356 211 213 226 229 229 215 202 204 223 231 221 238 263 247 237 231 222 214 209 205 202 201 204 209 212 214
213 210 209 207 207 209 208 207 210 212 214 215 214 213 214 216 217 217 217 215 213 212 208 205 203 200 210 210 203 218 176 161 170 180 185 200 210 223 226 224 231 233 233 240 218 182 160 128 90 72 102 109 110 103 42 78 157 150 119 332 277 271 274 250 240 241 235 228 220 214 238 250 228 209 251 244 224 217 211 200 198 199 201 202 206 213 219 224
222 220 218 215 213 212 210 209 212 213 214 216 216 216 216 218 219 219 219 218 215 212 208 207 205 206 209 206 208 208 173 168 173 182 190 195 197 210 209 210 215 203 185 196 203 191 177 155 128 54 113 120 107 92 69 108 137 137 44 316 299 313 295 258 245 242 224 226 229 213 245 272 218 192 243 241 213 210 209 200 198 200 205 210 214 221 226 227
226 226 225 224 223 219 214 212 213 215 215 214 217 218 218 220 221 221 221 219 217 214 211 208 208 210 210 214 219 206 176 176 176 181 187 188 192 196 190 182 177 176 165 164 194 202 183 167 201 218 161 151 140 86 110 124 127 127 58 323 308 351 326 260 254 235 202 208 221 192 281 286 220 220 242 239 210 205 206 204 205 206 213 218 222 226 228 228
226 228 229 229 228 227 222 218 216 216 215 214 215 217 220 221 221 223 224 222 220 217 215 213 213 213 213 221 221 205 191 190 188 190 192 200 208 200 187 181 183 190 178 170 184 188 181 192 205 175 149 148 159 129 131 119 122 208 58 52 319 360 334 284 303 206 182 185 179 152 278 276 246 237 235 224 206 199 201 207 211 213 218 223 226 229 229 229
227 227 229 230 230 231 228 225 224 220 218 216 213 214 219 220 222 226 227 227 225 221 220 218 216 215 217 227 221 207 202 200 203 206 209 218 218 205 201 204 218 218 196 187 189 192 192 201 213 175 147 134 145 137 95 25 64 220 18 32 8 12 280 303 350 162 160 192 174 143 254 265 272 266 241 217 207 201 203 208 214 218 221 226 228 230 231 229
229 229 229 230 231 232 230 229 228 225 223 219 215 215 217 218 220 223 226 229 228 226 224 221 219 217 224 235 226 212 207 208 210 214 220 224 219 213 214 219 225 214 199 199 197 195 192 197 203 162 137 128 127 112 25 358 10 35 34 316 340 157 262 310 278 168 160 188 176 147 245 265 280 286 242 202 200 203 209 212 215 220 223 227 230 231 231 229
232 231 230 230 230 231 231 230 229 228 227 225 220 217 217 218 219 220 223 225 225 225 222 222 221 215 228 240 226 217 216 214 213 216 221 221 216 212 212 217 216 208 205 204 196 189 186 183 164 129 136 142 119 87 45 13 345 357 105 246 269 173 266 321 305 196 170 138 182 196 238 269 286 285 195 190 197 203 210 216 218 222 226 227 230 232 231 228
233 232 233 232 231 231 229 229 230 231 232 229 225 222 221 220 219 220 221 218 219 219 215 217 217 219 240 239 226 225 223 218 213 215 220 220 214 205 207 210 203 202 201 190 185 180 177 166 146 139 103 81 97 92 63 344 302 317 359 235 242 200 220 294 308 251 166 139 211 224 236 254 269 257 186 192 201 205 213 222 224 225 227 228 230 231 232 230
234 234 235 234 233 233 231 229 229 232 235 233 229 227 223 223 223 220 217 214 207 201 212 212 193 208 249 230 222 228 226 218 212 212 215 214 204 193 198 203 196 191 178 171 175 166 166 141 117 130 15 35 79 102 133 224 208 201 190 208 255 242 220 243 278 227 161 157 220 199 240 255 265 268 230 211 206 211 222 229 230 230 229 228 229 231 233 233
236 235 236 236 235 235 234 231 228 231 235 235 233 228 223 222 220 222 217 204 191 178 209 209 192 168 232 220 218 225 225 210 205 207 207 202 192 185 186 186 182 178 161 153 170 159 153 90 78 112 233 217 193 159 185 205 174 169 176 159 186 225 252 238 257 230 175 164 228 208 228 246 255 263 250 231 215 218 231 237 238 236 232 230 230 232 234 235
245 239 236 236 236 236 237 235 232 231 230 232 232 224 215 198 186 223 216 209 210 211 218 214 205 204 199 196 211 215 209 197 200 201 197 195 185 174 171 167 162 166 160 156 172 165 142 123 163 203 212 208 200 195 204 188 138 140 145 153 198 217 266 255 264 261 183 165 244 222 226 248 251 257 261 250 222 221 234 241 242 239 236 233 232 234 235 236
253 246 240 237 235 235 237 236 234 231 228 228 225 218 209 192 183 222 212 219 230 227 229 229 213 213 219 217 208 208 196 189 196 196 193 191 180 168 170 164 144 151 200 145 128 128 131 160 221 222 213 203 196 200 217 222 154 150 158 228 258 221 254 256 250 281 196 177 262 241 230 255 254 254 263 256 214 220 233 235 241 241 238 236 234 235 235 234
250 249 245 240 236 235 236 236 235 232 227 224 220 217 219 213 214 225 221 239 246 236 233 231 222 219 220 220 218 211 195 184 191 194 191 183 178 180 176 163 147 168 174 122 104 99 135 214 239 231 201 164 189 187 196 228 236 253 209 228 266 238 270 281 275 310 168 182 263 272 248 258 259 257 260 250 226 233 240 238 243 244 240 238 236 235 233 231
246 246 246 242 238 236 235 234 233 231 226 223 221 219 222 223 221 227 235 263 264 245 234 230 227 224 218 217 218 209 199 194 193 191 188 181 182 188 176 164 168 152 141 154 154 150 175 244 246 225 173 146 222 196 152 195 244 241 219 207 248 243 251 276 287 315 320 213 255 284 284 270 264 263 259 251 241 245 251 249 250 249 244 243 242 239 235 231
242 241 244 243 239 236 234 234 231 230 226 223 224 221 222 224 219 223 231 257 279 251 236 234 231 226 221 218 216 210 206 209 203 192 188 184 180 182 183 179 158 138 176 189 179 181 208 242 239 175 163 172 207 210 162 176 245 247 219 207 227 230 215 229 280 324 329 328 319 309 300 279 254 250 253 257 251 251 256 253 251 250 248 247 246 242 238 234
236 235 239 239 239 236 233 234 231 228 225 224 226 222 220 222 214 215 224 284 286 253 240 234 230 231 225 218 212 205 207 217 216 205 195 190 183 171 183 189 164 171 203 188 178 212 234 237 129 115 151 173 186 218 195 180 219 263 229 209 214 211 213 235 334 17 358 328 318 3 292 282 267 244 250 274 295 257 256 249 245 249 248 244 242 240 236 232
232 229 231 233 236 230 226 233 231 225 223 225 225 218 213 208 195 195 150 25 287 229 189 206 216 225 214 208 197 185 204 228 217 210 200 196 192 175 167 181 171 201 191 163 178 231 229 222 189 136 148 162 181 229 220 180 182 259 240 203 202 193 200 237 205 79 272 262 292 64 198 270 286 233 239 257 262 258 260 258 253 253 249 243 241 239 235 230
238 227 223 228 231 223 220 225 223 219 219 224 221 211 206 192 173 169 122 7 277 185 151 180 189 189 196 196 183 172 197 195 190 204 198 193 193 186 185 181 161 204 171 139 230 247 178 201 210 178 164 166 183 227 222 172 160 241 241 166 167 179 199 223 189 185 227 254 313 5 132 270 279 247 234 231 244 265 267 265 264 260 254 248 245 241 235 232
246 234 223 223 227 226 224 222 222 220 218 221 211 203 197 182 168 143 120 288 254 143 148 179 171 176 182 183 182 174 138 147 156 197 192 188 193 193 208 197 173 187 178 160 223 253 153 179 201 185 180 197 202 218 189 159 169 243 209 126 134 159 163 149 146 187 298 15 290 294 97 262 270 262 260 219 234 260 261 254 257 260 259 254 249 243 237 234
251 245 233 226 228 229 226 224 225 218 212 210 199 193 185 171 158 112 100 231 203 121 153 166 159 169 159 166 182 175 133 142 139 181 182 187 193 193 222 201 183 179 193 197 210 234 149 189 197 172 176 209 206 212 172 167 194 201 136 92 70 75 78 75 104 123 37 343 243 239 185 237 270 247 182 157 238 242 252 254 254 260 263 262 254 245 237 233
248 250 242 232 227 224 221 223 220 203 192 192 186 182 170 159 141 112 182 224 203 128 137 156 165 166 153 153 186 182 137 146 116 153 169 183 190 190 128 170 167 144 208 289 242 239 329 176 198 179 186 187 149 93 153 177 167 129 102 61 42 29 37 44 57 83 20 273 234 217 199 207 272 266 194 210 227 216 232 255 262 263 263 263 259 248 237 232
240 245 244 236 228 223 221 223 217 194 183 180 174 170 161 149 108 162 202 241 349 167 125 153 177 156 158 158 175 183 138 91 139 150 158 161 174 178 130 147 130 104 268 295 285 310 336 67 229 216 177 137 108 80 44 89 122 114 89 76 63 345 7 17 359 49 256 256 239 228 206 192 235 260 235 240 248 228 219 234 249 259 260 259 257 250 240 233
236 239 242 238 236 232 228 231 223 193 186 180 169 167 158 147 219 205 205 76 45 204 157 175 195 164 171 170 172 176 150 147 170 164 163 154 169 185 183 185 167 140 242 236 238 326 294 234 268 277 185 161 127 98 44 25 62 99 98 106 109 308 347 342 305 73 235 252 266 274 164 204 236 246 254 261 265 248 228 227 234 248 262 265 260 251 241 233
235 236 240 238 238 237 234 239 232 197 187 179 168 169 163 177 200 205 210 187 198 211 151 151 158 158 168 169 179 169 135 170 180 171 171 157 177 205 220 222 183 164 199 190 186 203 258 293 298 124 240 197 169 160 179 210 159 151 139 143 156 169 243 276 262 262 262 265 297 340 160 247 270 252 236 239 245 247 247 249 254 262 268 268 262 251 238 230
234 234 241 239 238 240 238 240 231 200 182 173 167 173 194 198 200 209 216 216 216 49 93 121 119 140 164 172 193 165 145 225 178 161 169 156 173 211 228 238 215 170 103 151 175 179 216 283 206 182 204 187 185 190 172 139 154 183 150 141 160 159 176 225 215 224 256 280 298 294 188 208 211 244 239 238 250 257 261 264 266 272 273 268 258 242 230 226
233 231 238 238 236 236 236 237 229 200 178 172 169 182 190 190 212 218 218 213 185 43 37 97 107 132 186 242 251 183 169 220 174 150 171 174 189 200 196 211 205 178 135 176 218 168 206 267 230 209 168 169 183 186 132 110 135 233 116 120 183 180 181 228 209 183 192 289 288 226 222 220 209 266 270 261 270 269 267 265 263 266 270 264 251 234 225 223
233 227 230 232 230 232 230 229 223 197 180 174 171 200 196 199 204 197 202 196 180 132 97 93 92 132 192 220 248 213 198 121 154 157 199 199 225 207 201 215 198 187 183 181 183 151 180 277 274 342 64 178 181 161 139 145 177 170 131 173 204 168 157 213 269 34 82 264 264 200 245 287 309 280 262 242 258 276 280 268 257 258 262 256 245 231 223 222
232 232 235 228 227 231 227 223 214 190 182 181 190 208 201 216 216 191 167 175 159 134 128 157 173 162 184 194 209 204 194 113 158 175 192 189 247 212 205 230 194 194 204 193 195 195 167 259 285 117 172 248 130 113 91 77 130 129 179 198 160 68 102 126 258 347 38 258 268 215 240 269 271 271 288 217 240 261 265 257 256 260 255 248 244 235 227 224
235 245 250 236 229 228 225 222 207 188 188 192 208 222 223 233 231 208 152 153 136 142 175 204 190 169 181 192 198 188 178 172 178 188 183 184 242 205 183 205 201 201 208 201 218 240 159 227 295 67 170 275 46 102 75 20 98 127 178 180 131 132 211 122 176 237 198 256 285 269 242 239 209 229 271 178 215 236 246 245 252 255 244 242 243 237 229 223
237 249 253 243 232 227 227 223 203 190 194 200 201 218 226 231 242 264 269 213 162 169 201 213 201 183 182 183 171 170 184 187 171 177 190 191 231 202 179 191 203 200 201 193 198 230 160 201 268 336 331 328 34 138 176 214 28 54 89 147 119 145 178 163 170 173 166 238 287 296 265 239 221 211 195 202 210 215 232 239 238 241 241 242 242 238 231 224
235 241 254 243 231 228 225 215 199 191 201 213 197 209 218 223 240 246 246 243 204 184 210 214 205 194 190 184 170 171 190 194 175 181 208 195 211 230 190 184 174 182 189 190 198 194 139 210 239 311 327 189 194 205 187 185 180 148 153 170 183 155 118 164 206 136 137 179 245 280 278 257 233 205 192 206 213 206 214 225 233 242 244 245 246 245 239 230
237 237 255 240 232 227 212 201 194 193 204 208 205 218 219 215 215 222 231 239 250 255 236 222 213 208 199 186 186 185 180 186 186 191 220 206 207 241 198 180 163 149 163 184 210 206 185 197 175 172 236 204 223 245 208 198 193 176 188 192 189 177 138 160 239 206 147 189 187 219 271 262 225 196 197 202 213 214 210 208 227 245 247 249 252 252 248 238
241 241 245 231 228 216 198 189 194 199 193 202 209 209 200 205 210 207 221 226 236 262 290 283 227 216 209 189 189 185 170 183 195 198 224 217 209 218 197 186 172 157 154 176 207 196 157 110 137 183 218 217 240 262 229 215 192 128 203 205 177 179 153 161 221 219 175 227 180 140 274 274 238 183 197 204 215 231 227 213 225 245 252 257 258 256 255 245
243 245 243 230 222 209 194 187 215 199 195 211 209 207 192 200 207 192 196 204 207 224 255 261 228 215 225 199 176 178 178 189 197 201 220 227 216 214 192 181 171 161 164 181 199 173 134 126 167 217 296 308 303 314 13 32 114 125 237 171 163 203 197 179 208 186 175 224 178 134 264 269 279 213 221 236 239 249 244 226 230 246 253 260 263 261 259 248
255 254 250 234 212 200 190 198 213 197 210 206 201 207 210 212 211 202 193 188 189 188 210 230 229 221 229 209 184 193 189 197 210 207 213 228 215 206 192 181 174 171 183 185 169 166 170 178 154 159 278 313 329 309 316 319 171 187 221 198 193 206 198 194 67 116 236 224 171 177 247 240 274 317 323 335 312 272 251 233 231 246 252 256 261 264 261 252
267 260 252 232 208 196 193 207 208 201 208 201 194 201 205 212 216 215 211 193 196 196 201 221 222 216 222 212 218 212 194 205 223 209 207 228 229 197 193 189 182 184 199 193 175 167 170 177 161 181 223 223 220 222 206 183 164 188 216 199 203 205 193 202 209 195 239 221 161 201 242 237 296 297 281 298 311 271 259 244 233 240 249 254 259 264 262 253
251 245 234 215 206 205 209 212 208 206 203 201 203 203 205 209 212 214 213 203 203 202 210 225 208 194 215 211 225 233 212 216 222 200 199 215 223 198 195 193 191 194 203 195 174 160 142 188 186 197 215 222 230 222 147 134 154 201 208 191 201 210 200 200 220 221 223 175 193 224 234 254 266 241 233 255 243 242 257 251 239 239 244 249 253 261 260 252
230 229 210 195 200 209 219 216 212 211 198 197 193 192 205 209 203 200 203 206 205 199 212 236 192 192 210 206 215 228 222 226 223 213 211 202 204 278 201 195 197 200 200 187 173 160 90 193 200 209 216 225 235 218 153 155 178 199 202 194 203 209 199 200 220 222 166 125 249 239 195 245 258 236 213 238 238 245 253 245 244 244 245 247 248 252 253 248
225 241 236 230 206 202 214 209 206 210 206 200 194 193 206 211 206 191 194 209 210 196 199 225 210 210 210 202 210 220 212 219 225 222 222 199 178 301 208 207 210 202 190 177 178 168 131 201 206 211 218 230 237 215 168 177 191 199 200 200 203 203 199 207 219 220 170 185 249 246 166 222 252 243 212 214 215 229 236 239 245 248 248 249 247 246 247 244
223 243 248 250 254 261 253 222 203 207 211 201 198 205 208 212 212 205 193 198 209 202 199 208 213 214 212 204 204 213 207 204 218 219 205 184 178 160 173 226 229 203 181 169 185 176 172 209 206 203 216 236 240 212 172 187 199 206 208 205 204 203 205 211 217 218 204 217 246 251 223 240 251 229 194 211 222 232 239 242 244 246 247 247 243 243 244 242
222 230 243 252 257 265 275 256 212 207 212 202 205 210 208 212 213 211 201 190 191 198 202 214 219 212 211 209 205 216 217 206 220 223 185 169 190 181 187 199 180 189 180 170 185 174 195 213 192 171 208 243 243 208 169 193 202 210 220 218 216 213 211 213 217 216 214 230 246 252 257 260 251 180 209 223 220 228 236 237 238 241 243 242 240 241 243 243
232 233 235 250 261 244 258 263 214 209 211 202 208 208 210 219 215 210 209 205 203 198 196 211 221 212 207 212 209 222 224 213 222 226 195 182 203 194 197 202 160 160 182 176 162 114 163 224 44 96 191 245 242 177 163 203 213 225 239 232 223 220 215 212 213 211 208 221 238 246 254 258 242 179 224 221 198 210 226 229 233 237 238 237 238 241 244 246
240 240 242 246 257 218 217 244 227 220 214 199 201 203 210 223 219 213 218 214 213 214 210 212 218 213 207 211 211 220 224 220 226 235 226 222 228 218 209 201 173 169 174 163 158 149 149 166 166 133 193 248 241 145 151 183 197 240 243 234 225 218 210 211 220 221 212 210 223 230 238 248 243 200 221 222 193 210 227 230 233 236 235 235 237 241 247 251